TimeCEST,TemperatureF,Dew PointF,Humidity,Sea Level PressureIn,VisibilityMPH,Wind Direction,Wind SpeedMPH,Gust SpeedMPH,PrecipitationIn,Events,Conditions,WindDirDegrees,DateUTC
12:00 AM,69.8,59.0,68,30.15,-9999.0,Variable,2.3,-,N/A,,Clear,0,2012-10-01 22:00:00
12:30 AM,69.8,57.2,64,30.15,-9999.0,Variable,2.3,-,N/A,,Clear,0,2012-10-01 22:30:00
1:00 AM,68.0,57.2,68,30.15,-9999.0,NW,3.5,-,N/A,,Clear,310,2012-10-01 23:00:00
1:30 AM,68.0,57.2,68,30.15,-9999.0,Calm,Calm,-,N/A,,Clear,0,2012-10-01 23:30:00
2:00 AM,68.0,57.2,68,30.15,-9999.0,Calm,Calm,-,N/A,,Clear,0,2012-10-02 00:00:00
2:30 AM,64.4,59.0,83,30.12,-9999.0,Calm,Calm,-,N/A,,Clear,0,2012-10-02 00:30:00
4:30 AM,64.4,60.8,88,30.12,-9999.0,South,3.5,-,N/A,,Clear,170,2012-10-02 02:30:00
5:00 AM,64.4,60.8,88,30.12,-9999.0,Calm,Calm,-,N/A,,Clear,0,2012-10-02 03:00:00
5:30 AM,62.6,60.8,94,30.12,5.0,SE,1.2,-,N/A,,Unknown,140,2012-10-02 03:30:00
6:00 AM,62.6,60.8,94,30.12,5.0,Calm,Calm,-,N/A,,Unknown,0,2012-10-02 04:00:00
6:30 AM,62.6,60.8,94,30.12,-9999.0,NNE,1.2,-,N/A,,Clear,30,2012-10-02 04:30:00
7:30 AM,62.6,59.0,88,30.12,5.0,Calm,Calm,-,N/A,,Unknown,0,2012-10-02 05:30:00
8:00 AM,62.6,60.8,94,30.12,5.0,Calm,Calm,-,N/A,,Unknown,0,2012-10-02 06:00:00
8:30 AM,62.6,60.8,94,30.15,5.0,Variable,1.2,-,N/A,,Unknown,0,2012-10-02 06:30:00
9:00 AM,60.8,59.0,94,30.15,5.0,NNE,3.5,-,N/A,,Unknown,20,2012-10-02 07:00:00
9:30 AM,62.6,60.8,94,30.15,4.3,NE,2.3,-,N/A,,Unknown,50,2012-10-02 07:30:00
10:00 AM,64.4,60.8,88,30.15,5.6,NE,4.6,-,N/A,,Unknown,50,2012-10-02 08:00:00
10:30 AM,66.2,60.8,83,30.15,5.6,NE,4.6,-,N/A,,Unknown,50,2012-10-02 08:30:00
11:00 AM,68.0,59.0,73,30.18,-9999.0,ENE,6.9,-,N/A,,Clear,60,2012-10-02 09:00:00
11:30 AM,69.8,60.8,73,30.18,-9999.0,ENE,4.6,-,N/A,,Clear,70,2012-10-02 09:30:00
12:00 PM,73.4,60.8,65,30.18,-9999.0,ENE,3.5,-,N/A,,Clear,60,2012-10-02 10:00:00
12:30 PM,75.2,60.8,61,30.15,-9999.0,NE,1.2,-,N/A,,Clear,40,2012-10-02 10:30:00
1:00 PM,77.0,60.8,57,30.15,-9999.0,Variable,2.3,-,N/A,,Clear,0,2012-10-02 11:00:00
1:30 PM,77.0,59.0,54,30.15,-9999.0,NE,1.2,-,N/A,,Clear,40,2012-10-02 11:30:00
2:00 PM,78.8,59.0,51,30.15,-9999.0,ENE,2.3,-,N/A,,Clear,60,2012-10-02 12:00:00
2:30 PM,80.6,57.2,45,30.12,-9999.0,East,1.2,-,N/A,,Clear,80,2012-10-02 12:30:00
3:00 PM,80.6,57.2,45,30.12,-9999.0,ESE,1.2,-,N/A,,Clear,120,2012-10-02 13:00:00
3:30 PM,80.6,55.4,42,30.12,-9999.0,North,2.3,-,N/A,,Clear,10,2012-10-02 13:30:00
4:00 PM,82.4,51.8,35,30.09,-9999.0,Calm,Calm,-,N/A,,Clear,0,2012-10-02 14:00:00
5:00 PM,82.4,50.0,32,30.09,-9999.0,East,2.3,-,N/A,,Clear,90,2012-10-02 15:00:00
5:30 PM,82.4,51.8,35,30.09,-9999.0,SSE,2.3,-,N/A,,Clear,150,2012-10-02 15:30:00
6:00 PM,82.4,50.0,32,30.09,-9999.0,ENE,1.2,-,N/A,,Clear,60,2012-10-02 16:00:00
7:00 PM,82.4,51.8,35,30.09,-9999.0,Variable,1.2,-,N/A,,Clear,0,2012-10-02 17:00:00
7:30 PM,82.4,50.0,32,30.09,-9999.0,SE,2.3,-,N/A,,Clear,140,2012-10-02 17:30:00
8:00 PM,80.6,55.4,42,30.06,-9999.0,SSE,1.2,-,N/A,,Clear,160,2012-10-02 18:00:00
8:30 PM,78.8,51.8,39,30.06,-9999.0,Calm,Calm,-,N/A,,Clear,0,2012-10-02 18:30:00
9:00 PM,75.2,59.0,57,30.09,-9999.0,SSE,1.2,-,N/A,,Clear,150,2012-10-02 19:00:00
9:30 PM,75.2,59.0,57,30.09,-9999.0,Calm,Calm,-,N/A,,Clear,0,2012-10-02 19:30:00
10:00 PM,73.4,60.8,65,30.09,-9999.0,Calm,Calm,-,N/A,,Clear,0,2012-10-02 20:00:00
10:30 PM,75.2,57.2,53,30.09,-9999.0,Variable,1.2,-,N/A,,Clear,0,2012-10-02 20:30:00
11:00 PM,73.4,55.4,53,30.09,-9999.0,WNW,8.1,-,N/A,,Clear,290,2012-10-02 21:00:00
11:30 PM,71.6,55.4,57,30.09,-9999.0,NW,3.5,-,N/A,,Clear,310,2012-10-02 21:30:00